#timestamp,LO_Frequency,Hit,StdDev 
1592139615.2,286047003.0,N
1592139635.1,286047005.5,N
1592139636.0,286047005.5,N
1592139655.8,286047007.0,N
1592139675.7,286047006.3,N
1592139695.5,286047007.0,N
1592139715.3,286047007.0,N
1592139735.2,286047004.5,N
1592139755.0,286047006.1,N
1592139755.9,286047006.1,N
1592139775.8,286047008.7,N
1592139795.6,286047005.9,N
1592139815.4,286047001.8,N
1592139835.3,286047003.5,N
1592139855.1,286047006.3,N
1592139875.9,286047009.0,Y
1592139895.7,286046999.9,P
1592139915.5,286047002.8,N
1592139935.4,286047004.2,N
1592139955.2,286047001.9,N
1592139975.0,286047002.4,N
1592139975.9,286047002.4,N
1592139995.8,286046996.3,N
1592140015.6,286046995.4,N
1592140035.5,286046990.1,Y
1592140055.3,286046989.1,P
1592140075.1,286046994.3,N
1592140095.9,286046994.9,N
1592140115.7,286046998.2,N
1592140135.6,286046999.9,N
1592140155.4,286047004.4,N
1592140175.2,286047005.0,N
1592140195.1,286047007.1,N
1592140196.0,286047007.1,N
1592140215.8,286047006.1,N
1592140235.7,286047006.9,N
1592140255.5,286047005.0,N
1592140275.3,286047007.5,N
1592140295.2,286047007.7,N
1592140315.9,286047008.0,N
1592140335.7,286047006.0,N
1592140355.6,286046999.9,N
1592140375.4,286047003.5,N
1592140395.3,286047005.4,N
1592140415.1,286047005.8,N
1592140416.0,286047005.8,N
1592140465.9,286047008.0,E
1592140475.8,286047006.5,N
1592140495.6,286047003.0,P
1592140515.5,286047003.0,N
1592140535.3,286047001.4,N
1592140555.1,286047005.0,N
1592140575.9,286047006.7,Y
1592140595.7,286047005.4,P
1592140615.6,286047003.4,P
1592140635.4,286047002.8,P
1592140655.2,286047003.2,Y
1592140675.1,286047000.8,P
1592140676.0,286047000.8,N
1592140695.8,286047001.9,N
1592140715.7,286046998.4,N
1592140735.5,286046998.7,N
1592140755.3,286046999.3,N
1592140775.2,286046998.4,N
1592140795.9,286046996.0,N
1592140815.8,286046994.0,N
1592140835.6,286046990.4,Y
1592140855.4,286046992.8,P
1592140875.3,286046988.9,P
1592140895.1,286046990.7,N
1592140915.8,286046990.6,N
1592140935.7,286046985.9,Y
1592140955.5,286046989.3,P
1592140975.4,286046989.7,P
1592140995.2,286046989.5,P
1592141015.0,286046990.2,Y
1592141015.9,286046990.2,P
1592141035.8,286047000.0,N
1592141055.6,286047001.8,N
1592141075.5,286047001.0,N
1592141095.3,286046996.1,N
1592141115.1,286046994.9,N
1592141135.9,286046996.1,N
1592141155.7,286046995.5,N
1592141175.5,286046996.1,N
1592141195.4,286046993.6,N
1592141215.2,286046993.2,N
1592141235.1,286046991.7,N
1592141236.0,286046991.7,N
1592141255.8,286046995.7,N
1592141275.6,286046993.7,N
1592141295.5,286046992.9,N
1592141315.3,286046988.9,Y
1592141335.2,286046993.6,P
1592141355.9,286046997.3,P
1592141375.8,286047004.2,N
1592141395.6,286047007.2,N
1592141415.5,286047009.3,N
1592141435.3,286047011.1,N
1592141455.1,286047012.0,N
1592141475.9,286047011.0,N
1592141495.7,286047012.7,N
1592141515.5,286047013.4,N
1592141535.4,286047014.1,N
1592141555.2,286047018.0,N
1592141575.0,286047021.4,N
1592141576.0,286047021.4,N
1592141595.8,286047020.8,N
1592141615.6,286047017.8,N
1592141635.6,286047021.6,N
1592141655.4,286047019.0,N
1592141675.3,286047019.2,N
1592141695.1,286047020.7,N
1592141715.8,286047022.2,N
1592141735.7,286047025.6,N
1592141755.5,286047027.3,Y
1592141775.4,286047016.6,P
1592141795.2,286047016.7,P
1592141815.0,286047016.7,P
1592141815.9,286047016.7,Y
1592141835.8,286047003.3,P
1592141855.6,286047003.0,N
1592141875.4,286047002.0,N
1592141895.3,286047006.9,N
1592141915.1,286047006.6,N
1592141935.9,286047004.6,N
1592141955.7,286047007.6,N
1592141975.5,286047007.1,N
1592141995.4,286047003.0,N
1592142015.2,286047006.0,N
1592142035.0,286047006.0,N
1592142035.9,286047006.0,N
1592142055.8,286046996.7,N
1592142075.6,286046995.9,N
1592142095.5,286046994.4,N
1592142115.3,286046995.9,N
1592142135.1,286046998.4,N
1592142155.9,286047002.7,N
1592142175.7,286047004.9,N
1592142195.5,286047005.9,N
1592142215.4,286047001.3,N
1592142235.2,286047005.3,N
1592142255.1,286047001.9,N
1592142256.0,286047001.9,N
1592142275.8,286047004.9,N
1592142295.6,286047009.1,N
1592142315.5,286047009.4,N
1592142335.3,286047011.1,N
1592142355.1,286047011.5,N
1592142375.9,286047011.0,N
1592142395.7,286047015.2,Y
1592142415.6,286047011.5,P
1592142435.4,286047011.0,N
1592142455.2,286047014.9,P
1592142475.1,286047011.0,N
1592142476.0,286047011.0,Y
1592142495.8,286047005.7,P
1592142515.7,286047007.3,P
1592142535.5,286047006.4,P
1592142555.3,286047003.0,N
1592142575.2,286047004.3,N
1592142595.9,286047003.8,N
1592142615.7,286047001.5,N
1592142635.6,286047004.0,N
1592142655.4,286047004.7,N
1592142675.2,286047005.9,N
1592142695.1,286047004.6,N
1592142696.0,286047004.6,N
1592142715.8,286047005.4,N
1592142735.7,286047004.9,N
1592142755.5,286047005.9,N
1592142775.3,286047002.1,N
1592142795.2,286047001.2,N
1592142815.0,286046996.5,N
1592142815.9,286046996.5,N
1592142835.8,286046997.6,N
1592142855.6,286046994.8,N
1592142875.4,286046992.2,N
1592142895.3,286046992.3,N
1592142915.1,286046988.5,N
1592142935.8,286046989.2,N
1592142955.7,286046985.3,N
1592142975.5,286046982.1,N
1592142995.4,286046983.1,N
1592143015.2,286046979.8,N
1592143035.0,286046976.6,N
1592143035.9,286046976.6,N
1592143055.8,286046975.5,N
1592143075.6,286046973.3,N
1592143095.4,286046973.2,N
1592143115.3,286046976.7,N
1592143135.1,286046976.1,N
1592143155.9,286046978.0,N
1592143175.7,286046979.2,N
1592143195.5,286046981.7,N
